Date String (YYYY-MM-DD hh:mm:ss) UTC,Instrument flags,Ambient pressure (hPa),Sample flow (lpm),Bypass flow (lpm),Sample temperature (°C),Ambient temperature (°C),ASC tube jacket temperature (°C),LED temperature (°C),Box temperature (°C),Sample RH (%),Span deviation,Mass concentration (μg/m³),Mass concentration (μg/m³),Mass concentration (μg/m³)
DateTimeUTC,F1_M11,P_M11,Q1_M11,Q2_M11,T1_M11,T2_M11,T3_M11,T4_M11,T5_M11,U1_M11,ZSPAN_M11,X0_M11,X2_M11,X1_M11
2022-03-06 14:00:00,,0824.3,4.99,0.00,21.3,21.4,00.0,30.2,22.9,11.9,0000.0,0005.35,0003.45,0003.17
2022-03-06 14:01:00,,0824.3,5.01,0.00,21.2,21.1,00.0,30.2,22.8,11.9,0000.0,0005.32,0003.44,0003.16
2022-03-06 14:02:00,,0824.3,5.00,0.00,21.2,20.9,00.0,30.2,22.7,11.9,0000.0,0004.93,0003.44,0003.15
2022-03-06 14:03:00,,0824.2,4.99,0.00,21.1,20.7,00.0,30.2,22.6,12.0,0000.0,0004.62,0003.42,0003.15
2022-03-06 14:04:00,,0824.2,5.00,0.00,21.1,20.5,00.0,30.2,22.6,12.0,0000.0,0004.75,0003.42,0003.15
2022-03-06 14:05:00,,0824.2,4.99,0.00,21.0,20.4,00.0,30.2,22.5,12.1,0000.0,0004.73,0003.42,0003.15
2022-03-06 14:06:00,,0824.3,5.01,0.00,21.0,20.6,00.0,30.1,22.5,12.1,0000.0,0004.64,0003.40,0003.15
2022-03-06 14:07:00,,0824.3,5.00,0.00,21.1,21.6,00.0,30.2,22.8,12.1,0000.0,0004.59,0003.38,0003.14
2022-03-06 14:08:00,,0824.3,5.01,0.00,21.3,22.5,00.0,30.2,23.2,11.9,0000.0,0004.61,0003.38,0003.14
2022-03-06 14:09:00,,0824.3,5.01,0.00,21.4,22.5,00.0,30.3,23.3,11.9,0000.0,0004.69,0003.40,0003.15
2022-03-06 14:10:00,,0824.3,4.98,0.00,21.4,22.0,00.0,30.3,23.2,11.9,0000.0,0004.75,0003.42,0003.15
2022-03-06 14:11:00,,0824.3,5.01,0.00,21.4,21.6,00.0,30.3,23.0,11.9,0000.0,0004.74,0003.42,0003.15
2022-03-06 14:12:00,,0824.3,5.01,0.00,21.3,21.2,00.0,30.3,22.9,11.9,0000.0,0004.69,0003.40,0003.16
2022-03-06 14:13:00,,0824.3,4.99,0.00,21.2,20.9,00.0,30.3,22.7,12.0,0000.0,0004.67,0003.41,0003.16
2022-03-06 14:14:00,,0824.3,5.00,0.00,21.1,20.7,00.0,30.2,22.6,12.1,0000.0,0004.70,0003.41,0003.15
2022-03-06 14:15:00,,0824.3,5.00,0.00,21.1,20.5,00.0,30.2,22.5,12.2,0000.0,0004.75,0003.44,0003.14
2022-03-06 14:16:00,,0824.3,5.00,0.00,21.0,20.4,00.0,30.2,22.5,12.2,0000.0,0004.65,0003.42,0003.12
2022-03-06 14:17:00,,0824.3,5.01,0.00,21.0,20.9,00.0,30.2,22.6,12.3,0000.0,0004.64,0003.41,0003.10
2022-03-06 14:18:00,,0824.3,5.00,0.00,21.2,21.9,00.0,30.3,23.0,12.2,0000.0,0004.66,0003.41,0003.07
2022-03-06 14:19:00,,0824.3,4.99,0.00,21.4,22.6,00.0,30.3,23.3,12.0,0000.0,0004.85,0003.41,0003.04
2022-03-06 14:20:00,,0824.3,5.00,0.00,21.4,22.2,00.0,30.3,23.2,12.0,0000.0,0004.80,0003.39,0002.99
2022-03-06 14:21:00,,0824.4,5.00,0.00,21.4,21.7,00.0,30.3,23.1,12.0,0000.0,0004.67,0003.35,0002.95
2022-03-06 14:22:00,,0824.4,5.01,0.00,21.3,21.3,00.0,30.3,22.9,12.1,0000.0,0004.62,0003.32,0002.91
2022-03-06 14:23:00,,0824.3,5.00,0.00,21.2,21.0,00.0,30.3,22.8,12.1,0000.0,0004.57,0003.31,0002.88
2022-03-06 14:24:00,,0824.3,5.00,0.00,21.1,20.7,00.0,30.3,22.6,12.2,0000.0,0004.54,0003.29,0002.84
2022-03-06 14:25:00,,0824.4,4.99,0.00,21.1,20.5,00.0,30.2,22.5,12.2,0000.0,0004.65,0003.28,0002.82
2022-03-06 14:26:00,,0824.4,4.99,0.00,21.0,20.3,00.0,30.2,22.5,12.3,0000.0,0004.80,0003.23,0002.77
2022-03-06 14:27:00,,0824.5,5.00,0.00,20.9,20.3,00.0,30.2,22.4,12.4,0000.0,0004.87,0003.24,0002.76
2022-03-06 14:28:00,,0824.4,5.00,0.00,21.0,21.1,00.0,30.2,22.6,12.3,0000.0,0004.77,0003.21,0002.74
2022-03-06 14:29:00,,0824.4,5.00,0.00,21.2,22.1,00.0,30.2,23.0,12.2,0000.0,0004.76,0003.20,0002.73
2022-03-06 14:30:00,,0824.4,4.99,0.00,21.4,22.8,00.0,30.3,23.3,12.1,0000.0,0004.51,0003.16,0002.72
2022-03-06 14:31:00,,0824.4,5.01,0.00,21.5,22.6,00.0,30.3,23.4,12.0,0000.0,0004.64,0003.16,0002.73
2022-03-06 14:32:00,,0824.4,4.98,0.00,21.5,22.1,00.0,30.3,23.2,12.0,0000.0,0004.74,0003.18,0002.73
2022-03-06 14:33:00,,0824.4,4.99,0.00,21.4,21.6,00.0,30.3,23.0,12.1,0000.0,0004.79,0003.20,0002.75
2022-03-06 14:34:00,,0824.4,5.00,0.00,21.3,21.2,00.0,30.3,22.8,12.1,0000.0,0004.94,0003.24,0002.76
2022-03-06 14:35:00,,0824.4,5.01,0.00,21.2,20.9,00.0,30.3,22.7,12.1,0000.0,0004.91,0003.25,0002.79
2022-03-06 14:36:00,,0824.5,5.00,0.00,21.2,20.6,00.0,30.3,22.6,12.1,0000.0,0004.64,0003.24,0002.84
2022-03-06 14:37:00,,0824.4,5.00,0.00,21.1,20.4,00.0,30.3,22.5,12.1,0000.0,0004.36,0003.26,0002.90
2022-03-06 14:38:00,,0824.4,5.00,0.00,21.0,20.2,00.0,30.2,22.4,12.1,0000.0,0004.36,0003.28,0002.95
2022-03-06 14:39:00,,0824.5,5.00,0.00,20.9,20.3,00.0,30.2,22.4,12.0,0000.0,0004.51,0003.33,0003.01
2022-03-06 14:40:00,,0824.5,5.02,0.00,21.1,21.3,00.0,30.2,22.7,11.9,0000.0,0004.50,0003.35,0003.05
2022-03-06 14:41:00,,0824.5,5.00,0.00,21.2,22.3,00.0,30.3,23.1,11.8,0000.0,0004.49,0003.39,0003.10
2022-03-06 14:42:00,,0824.5,5.00,0.00,21.4,22.3,00.0,30.3,23.2,11.6,0000.0,0004.49,0003.43,0003.14
2022-03-06 14:43:00,,0824.5,5.00,0.00,21.4,21.9,00.0,30.3,23.1,11.7,0000.0,0004.51,0003.44,0003.16
2022-03-06 14:44:00,,0824.5,5.00,0.00,21.3,21.5,00.0,30.3,23.0,11.7,0000.0,0004.48,0003.44,0003.18
2022-03-06 14:45:00,,0824.5,5.01,0.00,21.3,21.2,00.0,30.3,22.8,11.7,0000.0,0004.43,0003.44,0003.20
2022-03-06 14:46:00,,0824.5,4.98,0.00,21.2,20.9,00.0,30.3,22.8,11.8,0000.0,0004.58,0003.48,0003.21
2022-03-06 14:47:00,,0824.6,5.00,0.00,21.2,20.7,00.0,30.3,22.7,11.9,0000.0,0004.98,0003.52,0003.21
2022-03-06 14:48:00,,0824.6,5.00,0.00,21.1,20.5,00.0,30.2,22.6,11.9,0000.0,0005.08,0003.53,0003.21
2022-03-06 14:49:00,,0824.6,5.00,0.00,21.0,20.3,00.0,30.2,22.5,11.9,0000.0,0005.10,0003.53,0003.21
2022-03-06 14:50:00,,0824.6,5.00,0.00,21.0,20.7,00.0,30.2,22.6,11.9,0000.0,0005.06,0003.52,0003.21
2022-03-06 14:51:00,,0824.7,5.00,0.00,21.2,21.7,00.0,30.2,22.9,11.8,0000.0,0005.08,0003.53,0003.22
2022-03-06 14:52:00,,0824.7,5.01,0.00,21.4,22.5,00.0,30.3,23.2,11.7,0000.0,0005.05,0003.52,0003.22
2022-03-06 14:53:00,,0824.6,4.98,0.00,21.4,22.4,00.0,30.3,23.3,11.6,0000.0,0004.90,0003.50,0003.22
2022-03-06 14:54:00,,0824.7,5.00,0.00,21.4,21.9,00.0,30.3,23.1,11.6,0000.0,0004.88,0003.51,0003.22
2022-03-06 14:55:00,,0824.6,4.99,0.00,21.3,21.5,00.0,30.3,23.0,11.6,0000.0,0005.07,0003.54,0003.22
2022-03-06 14:56:00,,0824.7,5.00,0.00,21.3,21.1,00.0,30.3,22.8,11.6,0000.0,0005.05,0003.53,0003.22
2022-03-06 14:57:00,,0824.7,5.01,0.00,21.2,20.9,00.0,30.3,22.7,11.6,0000.0,0004.89,0003.51,0003.23
2022-03-06 14:58:00,,0824.7,5.00,0.00,21.2,20.7,00.0,30.3,22.7,11.5,0000.0,0004.63,0003.50,0003.25
2022-03-06 14:59:00,,0824.6,5.00,0.00,21.1,20.5,00.0,30.3,22.6,11.5,0000.0,0004.62,0003.52,0003.27
